Location: Campavaglio
(41.1333°N, 9.2333°E)
Time: 14:53:03
(UTC+00:00)

Cosmos 2219 Rocket - Pass Details

Date: 07 June 2020
Orbit: 828 x 846 km, 71.0° (Epoch: 10 July)

Event Time Altitude Azimuth Distance (km) Brightness Sun altitude
Exits shadow 02:41:50 - 193° (SSW) 2,520 4.2 -11.1°
Reaches altitude 10° 02:42:05 10° 192° (SSW) 2,424 4.1 -11.0°
Maximum altitude 02:47:36 69° 110° (ESE) 884 2.4 -10.3°
Drops below altitude 10° 02:53:09 10° 28° (NNE) 2,439 5.9 -9.5°
Sets 02:55:36 0° 27° (NNE) 3,378 6.8 -9.2°
